Time,TemperatureF,DewpointF,PressureIn,WindDirection,WindDirectionDegrees,WindSpeedMPH,WindSpeedGustMPH,Humidity,HourlyPrecipIn,Conditions,Clouds,dailyrainin,SoftwareType,DateUTC
2013-03-19 00:04:00,30.2,21.6,30.03,NE,45,1.0,3.0,70,0.00,CLR,,0.00,WeatherDisplay:10.37,2013-03-19 04:04:00,
2013-03-19 00:09:00,30.2,21.6,30.03,NNE,30,1.0,5.0,70,0.00,CLR,,0.00,WeatherDisplay:10.37,2013-03-19 04:09:00,
2013-03-19 00:14:00,30.4,22.1,30.03,ESE,117,2.0,2.0,71,0.00,CLR,,0.00,WeatherDisplay:10.37,2013-03-19 04:14:00,
2013-03-19 00:19:00,30.4,22.1,30.00,East,97,3.0,6.0,71,0.00,CLR,,0.00,WeatherDisplay:10.37,2013-03-19 04:19:00,
2013-03-19 00:24:00,30.4,22.1,30.00,ENE,72,1.0,8.0,71,0.00,CLR,,0.00,WeatherDisplay:10.37,2013-03-19 04:24:00,
2013-03-19 00:29:00,30.4,22.1,30.00,East,79,1.0,3.0,71,0.00,CLR,,0.00,WeatherDisplay:10.37,2013-03-19 04:29:00,
2013-03-19 00:34:00,30.4,22.1,30.00,ENE,73,2.0,5.0,71,0.00,CLR,,0.00,WeatherDisplay:10.37,2013-03-19 04:34:00,
2013-03-19 00:44:00,30.6,22.6,30.00,SSE,148,1.0,6.0,72,0.00,CLR,,0.00,WeatherDisplay:10.37,2013-03-19 04:44:00,
2013-03-19 00:49:00,30.7,22.8,29.97,NE,51,2.0,3.0,72,0.00,CLR,,0.00,WeatherDisplay:10.37,2013-03-19 04:49:00,
2013-03-19 00:54:00,30.7,22.8,29.97,NE,56,2.0,4.0,72,0.00,CLR,,0.00,WeatherDisplay:10.37,2013-03-19 04:54:00,
2013-03-19 00:59:00,30.7,22.8,29.97,NE,54,2.0,3.0,72,0.00,CLR,,0.00,WeatherDisplay:10.37,2013-03-19 04:59:00,
2013-03-19 01:04:00,30.9,23.3,29.97,East,79,1.0,2.0,73,0.00,CLR,,0.00,WeatherDisplay:10.37,2013-03-19 05:04:00,
2013-03-19 01:09:00,30.9,23.0,29.97,NE,48,2.0,3.0,72,0.00,CLR,,0.00,WeatherDisplay:10.37,2013-03-19 05:09:00,
2013-03-19 01:14:00,30.9,23.3,29.97,NE,42,2.0,6.0,73,0.00,CLR,,0.00,WeatherDisplay:10.37,2013-03-19 05:14:00,
2013-03-19 01:19:00,30.9,23.0,29.97,ENE,72,1.0,4.0,72,0.00,CLR,,0.00,WeatherDisplay:10.37,2013-03-19 05:19:00,
2013-03-19 01:24:00,30.9,23.3,29.97,NE,35,5.0,5.0,73,0.00,CLR,,0.00,WeatherDisplay:10.37,2013-03-19 05:24:00,
2013-03-19 01:29:00,30.9,23.3,29.97,NNE,31,2.0,5.0,73,0.00,CLR,,0.00,WeatherDisplay:10.37,2013-03-19 05:29:00,
2013-03-19 01:39:00,30.9,23.3,29.94,NNE,19,2.0,5.0,73,0.00,CLR,,0.00,WeatherDisplay:10.37,2013-03-19 05:39:00,
2013-03-19 01:44:00,30.9,23.6,29.94,NE,41,1.0,3.0,74,0.00,CLR,,0.00,WeatherDisplay:10.37,2013-03-19 05:44:00,
2013-03-19 01:49:00,31.1,23.8,29.94,NE,35,1.0,4.0,74,0.00,CLR,,0.00,WeatherDisplay:10.37,2013-03-19 05:49:00,
2013-03-19 01:54:00,31.1,23.8,29.94,NE,41,3.0,5.0,74,0.00,CLR,,0.00,WeatherDisplay:10.37,2013-03-19 05:54:00,
2013-03-19 01:59:00,31.3,24.0,29.94,ENE,67,1.0,3.0,74,0.00,CLR,,0.00,WeatherDisplay:10.37,2013-03-19 05:59:00,
2013-03-19 02:04:00,31.5,24.4,29.91,ENE,74,1.0,2.0,75,0.00,CLR,,0.00,WeatherDisplay:10.37,2013-03-19 06:04:00,
2013-03-19 02:09:00,31.5,24.8,29.91,NE,37,3.0,5.0,76,0.00,CLR,,0.00,WeatherDisplay:10.37,2013-03-19 06:09:00,
2013-03-19 02:14:00,31.6,24.9,29.91,NE,44,1.0,3.0,76,0.00,CLR,,0.00,WeatherDisplay:10.37,2013-03-19 06:14:00,
2013-03-19 02:19:00,31.6,24.9,29.91,ENE,67,3.0,4.0,76,0.00,CLR,,0.00,WeatherDisplay:10.37,2013-03-19 06:19:00,
2013-03-19 02:29:00,31.8,25.1,29.91,ENE,66,5.0,6.0,76,0.00,CLR,,0.00,WeatherDisplay:10.37,2013-03-19 06:29:00,
2013-03-19 02:34:00,31.8,25.1,29.91,East,79,2.0,5.0,76,0.00,CLR,,0.00,WeatherDisplay:10.37,2013-03-19 06:34:00,
2013-03-19 02:39:00,31.8,25.1,29.91,NE,35,1.0,5.0,76,0.00,CLR,,0.00,WeatherDisplay:10.37,2013-03-19 06:39:00,
2013-03-19 02:44:00,31.8,25.4,29.91,NNE,33,1.0,2.0,77,0.00,CLR,,0.00,WeatherDisplay:10.37,2013-03-19 06:44:00,
2013-03-19 02:49:00,31.8,25.4,29.88,NNE,32,2.0,3.0,77,0.00,CLR,,0.00,WeatherDisplay:10.37,2013-03-19 06:49:00,
2013-03-19 02:54:00,31.8,25.4,29.88,NNE,17,2.0,3.0,77,0.00,CLR,,0.00,WeatherDisplay:10.37,2013-03-19 06:54:00,
2013-03-19 02:59:00,31.8,25.4,29.88,NE,52,2.0,3.0,77,0.00,CLR,,0.00,WeatherDisplay:10.37,2013-03-19 06:59:00,
2013-03-19 03:04:00,31.8,25.4,29.88,NE,41,2.0,4.0,77,0.00,CLR,,0.00,WeatherDisplay:10.37,2013-03-19 07:04:00,
2013-03-19 03:14:00,32.0,25.6,29.88,East,93,3.0,4.0,77,0.00,CLR,,0.00,WeatherDisplay:10.37,2013-03-19 07:14:00,
2013-03-19 03:19:00,32.0,25.6,29.85,ENE,75,3.0,4.0,77,0.00,CLR,,0.00,WeatherDisplay:10.37,2013-03-19 07:19:00,
2013-03-19 03:29:00,32.2,26.1,29.85,ESE,111,5.0,6.0,78,0.00,CLR,,0.00,WeatherDisplay:10.37,2013-03-19 07:29:00,
2013-03-19 03:34:00,32.2,26.1,29.85,East,101,0.0,6.0,78,0.00,CLR,,0.00,WeatherDisplay:10.37,2013-03-19 07:34:00,
2013-03-19 03:39:00,32.2,26.1,29.85,ESE,106,2.0,3.0,78,0.00,CLR,,0.00,WeatherDisplay:10.37,2013-03-19 07:39:00,
2013-03-19 03:44:00,32.2,26.4,29.85,ESE,115,1.0,2.0,79,0.00,CLR,,0.00,WeatherDisplay:10.37,2013-03-19 07:44:00,
2013-03-19 03:49:00,32.2,26.4,29.88,NW,321,2.0,3.0,79,0.00,CLR,,0.00,WeatherDisplay:10.37,2013-03-19 07:49:00,
2013-03-19 03:54:00,32.2,26.4,29.88,ESE,111,1.0,3.0,79,0.00,CLR,,0.00,WeatherDisplay:10.37,2013-03-19 07:54:00,
2013-03-19 03:59:00,32.2,26.7,29.88,East,99,1.0,3.0,80,0.00,CLR,,0.00,WeatherDisplay:10.37,2013-03-19 07:59:00,
2013-03-19 04:04:00,32.2,26.7,29.85,East,97,1.0,3.0,80,0.04,RA,,0.04,WeatherDisplay:10.37,2013-03-19 08:04:00,
2013-03-19 04:09:00,32.2,26.7,29.85,ENE,75,2.0,3.0,80,0.00,RA,,0.04,WeatherDisplay:10.37,2013-03-19 08:09:00,
2013-03-19 04:14:00,32.2,26.7,29.85,East,80,1.0,2.0,80,0.00,CLR,,0.04,WeatherDisplay:10.37,2013-03-19 08:14:00,
2013-03-19 04:19:00,32.2,26.7,29.85,ESE,112,2.0,3.0,80,0.04,RA,,0.08,WeatherDisplay:10.37,2013-03-19 08:19:00,
2013-03-19 04:24:00,32.2,26.7,29.85,ESE,112,2.0,5.0,80,0.00,RA,,0.08,WeatherDisplay:10.37,2013-03-19 08:24:00,
2013-03-19 04:29:00,32.2,26.7,29.85,ESE,112,2.0,3.0,80,0.04,RA,,0.12,WeatherDisplay:10.37,2013-03-19 08:29:00,
2013-03-19 04:34:00,32.2,26.7,29.83,ESE,112,5.0,6.0,80,0.00,RA,,0.12,WeatherDisplay:10.37,2013-03-19 08:34:00,
2013-03-19 04:39:00,32.4,26.6,29.83,ESE,112,2.0,6.0,79,0.04,RA,,0.16,WeatherDisplay:10.37,2013-03-19 08:39:00,
2013-03-19 04:44:00,32.4,26.9,29.83,ESE,112,2.0,2.0,80,0.00,RA,,0.16,WeatherDisplay:10.37,2013-03-19 08:44:00,
2013-03-19 04:49:00,32.4,26.9,29.83,ESE,112,2.0,6.0,80,0.00,CLR,,0.16,WeatherDisplay:10.37,2013-03-19 08:49:00,
2013-03-19 04:54:00,32.4,26.9,29.83,ESE,112,1.0,3.0,80,0.00,CLR,,0.16,WeatherDisplay:10.37,2013-03-19 08:54:00,
2013-03-19 04:59:00,32.4,26.9,29.83,ESE,112,3.0,4.0,80,0.00,CLR,,0.16,WeatherDisplay:10.37,2013-03-19 08:59:00,
2013-03-19 05:04:00,32.4,26.9,29.83,ESE,112,2.0,3.0,80,0.04,RA,,0.20,WeatherDisplay:10.37,2013-03-19 09:04:00,
2013-03-19 05:09:00,32.4,27.2,29.83,ESE,112,1.0,3.0,81,0.00,RA,,0.20,WeatherDisplay:10.37,2013-03-19 09:09:00,
2013-03-19 05:14:00,32.4,27.2,29.83,ESE,112,2.0,5.0,81,0.00,CLR,,0.20,WeatherDisplay:10.37,2013-03-19 09:14:00,
2013-03-19 05:19:00,32.4,27.2,29.83,ESE,112,1.0,5.0,81,0.05,RA,,0.25,WeatherDisplay:10.37,2013-03-19 09:19:00,
2013-03-19 05:24:00,32.4,27.2,29.83,ESE,112,2.0,3.0,81,0.00,RA,,0.25,WeatherDisplay:10.37,2013-03-19 09:24:00,
2013-03-19 05:29:00,32.4,27.2,29.83,ESE,112,2.0,5.0,81,0.00,,,0.25,WeatherDisplay:10.37,2013-03-19 09:29:00,
2013-03-19 05:39:00,32.5,27.4,29.80,ESE,112,5.0,6.0,81,0.00,CLR,,0.25,WeatherDisplay:10.37,2013-03-19 09:39:00,
2013-03-19 05:44:00,32.4,27.5,29.80,ESE,112,3.0,6.0,82,0.04,RA,,0.29,WeatherDisplay:10.37,2013-03-19 09:44:00,
2013-03-19 05:49:00,32.4,27.6,29.80,ESE,112,0.0,5.0,82,0.00,RA,,0.29,WeatherDisplay:10.37,2013-03-19 09:49:00,
2013-03-19 05:54:00,32.5,27.7,29.80,ESE,112,1.0,5.0,82,0.00,CLR,,0.29,WeatherDisplay:10.37,2013-03-19 09:54:00,
2013-03-19 05:59:00,32.5,27.7,29.80,ESE,112,2.0,5.0,82,0.04,RA,,0.33,WeatherDisplay:10.37,2013-03-19 09:59:00,
2013-03-19 06:04:00,32.5,27.7,29.80,ESE,112,2.0,3.0,82,0.00,RA,,0.33,WeatherDisplay:10.37,2013-03-19 10:04:00,
2013-03-19 06:09:00,32.5,28.0,29.80,ESE,112,1.0,4.0,83,0.00,CLR,,0.33,WeatherDisplay:10.37,2013-03-19 10:09:00,
2013-03-19 06:14:00,32.5,28.0,29.80,ESE,112,1.0,5.0,83,0.00,CLR,,0.33,WeatherDisplay:10.37,2013-03-19 10:14:00,
2013-03-19 06:19:00,32.5,28.0,29.80,ESE,112,3.0,4.0,83,0.00,CLR,,0.33,WeatherDisplay:10.37,2013-03-19 10:19:00,
2013-03-19 06:24:00,32.5,28.2,29.80,ESE,112,2.0,5.0,84,0.05,RA,,0.38,WeatherDisplay:10.37,2013-03-19 10:24:00,
2013-03-19 06:29:00,32.5,28.0,29.80,ESE,112,2.0,6.0,83,0.00,RA,,0.38,WeatherDisplay:10.37,2013-03-19 10:29:00,
2013-03-19 06:34:00,32.5,28.2,29.77,ESE,112,2.0,4.0,84,0.04,RA,,0.42,WeatherDisplay:10.37,2013-03-19 10:34:00,
2013-03-19 06:39:00,32.5,28.2,29.77,ESE,112,5.0,6.0,84,0.00,RA,,0.42,WeatherDisplay:10.37,2013-03-19 10:39:00,
2013-03-19 06:44:00,32.5,28.2,29.77,ESE,112,2.0,6.0,84,0.00,,,0.42,WeatherDisplay:10.37,2013-03-19 10:44:00,
2013-03-19 06:49:00,32.6,28.3,29.77,ESE,112,3.0,5.0,84,0.00,CLR,,0.42,WeatherDisplay:10.37,2013-03-19 10:49:00,
2013-03-19 06:54:00,32.7,28.7,29.77,ESE,112,2.0,5.0,85,0.00,CLR,,0.42,WeatherDisplay:10.37,2013-03-19 10:54:00,
2013-03-19 06:59:00,32.7,28.7,29.77,ESE,112,3.0,4.0,85,0.00,CLR,,0.42,WeatherDisplay:10.37,2013-03-19 10:59:00,
2013-03-19 07:04:00,32.7,28.7,29.77,ESE,112,3.0,6.0,85,0.04,RA,,0.46,WeatherDisplay:10.37,2013-03-19 11:04:00,
2013-03-19 07:09:00,32.7,28.7,29.77,ESE,112,3.0,5.0,85,0.00,RA,,0.46,WeatherDisplay:10.37,2013-03-19 11:09:00,
2013-03-19 07:14:00,32.7,28.7,29.77,East,98,5.0,5.0,85,0.04,RA,,0.50,WeatherDisplay:10.37,2013-03-19 11:14:00,
2013-03-19 07:19:00,32.7,28.7,29.74,ENE,72,5.0,6.0,85,0.05,RA,,0.55,WeatherDisplay:10.37,2013-03-19 11:19:00,
2013-03-19 07:24:00,32.7,28.7,29.74,NE,41,6.0,6.0,85,0.04,RA,,0.59,WeatherDisplay:10.37,2013-03-19 11:24:00,
2013-03-19 07:49:00,32.9,29.2,29.74,NE,51,3.0,5.0,86,0.04,RA,,0.67,WeatherDisplay:10.37,2013-03-19 11:49:00,
2013-03-19 07:54:00,32.9,29.2,29.74,NE,43,5.0,6.0,86,0.00,RA,,0.67,WeatherDisplay:10.37,2013-03-19 11:54:00,
2013-03-19 07:59:00,32.9,28.9,29.74,NE,48,6.0,6.0,85,0.05,RA,,0.72,WeatherDisplay:10.37,2013-03-19 11:59:00,
2013-03-19 08:04:00,32.9,29.2,29.71,ENE,63,3.0,6.0,86,0.00,RA,,0.72,WeatherDisplay:10.37,2013-03-19 12:04:00,
2013-03-19 08:14:00,33.0,29.6,29.71,East,83,3.0,5.0,87,0.00,RA,,0.76,WeatherDisplay:10.37,2013-03-19 12:14:00,
2013-03-19 08:19:00,33.1,29.6,29.71,NE,53,2.0,5.0,87,0.00,,,0.76,WeatherDisplay:10.37,2013-03-19 12:19:00,
2013-03-19 08:24:00,33.1,29.6,29.71,East,82,2.0,5.0,87,0.00,CLR,,0.76,WeatherDisplay:10.37,2013-03-19 12:24:00,
2013-03-19 08:34:00,33.1,29.6,29.71,NNE,13,1.0,5.0,87,0.00,RA,,0.80,WeatherDisplay:10.37,2013-03-19 12:34:00,
2013-03-19 08:44:00,33.3,29.8,29.71,NE,51,6.0,6.0,87,0.04,RA,,0.83,WeatherDisplay:10.37,2013-03-19 12:44:00,
2013-03-19 08:54:00,33.4,30.3,29.71,NE,54,5.0,6.0,88,0.00,RA,,0.87,WeatherDisplay:10.37,2013-03-19 12:54:00,
2013-03-19 08:59:00,33.4,30.3,29.71,ENE,57,5.0,6.0,88,0.00,,,0.87,WeatherDisplay:10.37,2013-03-19 12:59:00,
2013-03-19 09:04:00,33.4,30.3,29.71,ENE,61,3.0,5.0,88,0.05,RA,,0.93,WeatherDisplay:10.37,2013-03-19 13:04:00,
2013-03-19 09:09:00,33.6,30.4,29.71,ENE,65,3.0,4.0,88,0.00,RA,,0.93,WeatherDisplay:10.37,2013-03-19 13:09:00,
2013-03-19 09:19:00,33.6,30.4,29.68,ENE,58,2.0,4.0,88,0.04,RA,,0.96,WeatherDisplay:10.37,2013-03-19 13:19:00,
2013-03-19 09:29:00,33.6,30.4,29.68,ENE,65,3.0,5.0,88,0.00,CLR,,0.96,WeatherDisplay:10.37,2013-03-19 13:29:00,
2013-03-19 09:34:00,33.8,30.6,29.68,ENE,67,3.0,3.0,88,0.00,CLR,,0.96,WeatherDisplay:10.37,2013-03-19 13:34:00,
2013-03-19 09:39:00,33.8,30.9,29.68,NE,56,2.0,3.0,89,0.00,CLR,,0.96,WeatherDisplay:10.37,2013-03-19 13:39:00,
2013-03-19 09:44:00,34.0,31.1,29.68,NNE,26,2.0,3.0,89,0.04,RA,,1.00,WeatherDisplay:10.37,2013-03-19 13:44:00,
2013-03-19 09:54:00,34.0,31.1,29.68,NNE,25,3.0,5.0,89,0.00,,,1.00,WeatherDisplay:10.37,2013-03-19 13:54:00,
2013-03-19 09:59:00,34.0,31.1,29.68,NNE,26,2.0,4.0,89,0.00,CLR,,1.00,WeatherDisplay:10.37,2013-03-19 13:59:00,
2013-03-19 10:04:00,34.1,31.2,29.71,ENE,63,2.0,5.0,89,0.00,CLR,,1.00,WeatherDisplay:10.37,2013-03-19 14:04:00,
2013-03-19 10:09:00,34.2,31.3,29.71,ENE,78,2.0,5.0,89,0.00,CLR,,1.00,WeatherDisplay:10.37,2013-03-19 14:09:00,
2013-03-19 10:14:00,34.2,31.3,29.71,NE,53,1.0,2.0,89,0.04,RA,,1.04,WeatherDisplay:10.37,2013-03-19 14:14:00,
2013-03-19 10:24:00,34.3,31.7,29.68,ENE,59,2.0,3.0,90,0.00,CLR,,1.04,WeatherDisplay:10.37,2013-03-19 14:24:00,
2013-03-19 10:29:00,34.3,31.7,29.68,NE,38,3.0,5.0,90,0.00,CLR,,1.04,WeatherDisplay:10.37,2013-03-19 14:29:00,
2013-03-19 10:34:00,34.5,31.9,29.68,NNE,22,5.0,5.0,90,0.00,CLR,,1.04,WeatherDisplay:10.37,2013-03-19 14:34:00,
2013-03-19 10:39:00,34.7,32.1,29.68,NE,40,3.0,5.0,90,0.00,CLR,,1.04,WeatherDisplay:10.37,2013-03-19 14:39:00,
2013-03-19 10:44:00,34.9,32.2,29.68,ENE,60,5.0,5.0,90,0.00,CLR,,1.04,WeatherDisplay:10.37,2013-03-19 14:44:00,
2013-03-19 10:49:00,35.1,32.4,29.65,NE,43,2.0,5.0,90,0.00,CLR,,1.04,WeatherDisplay:10.37,2013-03-19 14:49:00,
2013-03-19 10:54:00,35.1,32.4,29.65,ENE,71,3.0,6.0,90,0.00,CLR,,1.04,WeatherDisplay:10.37,2013-03-19 14:54:00,
2013-03-19 11:04:00,35.4,32.8,29.62,ENE,67,3.0,5.0,90,0.00,CLR,,1.04,WeatherDisplay:10.37,2013-03-19 15:04:00,
2013-03-19 11:14:00,35.6,33.0,29.62,NE,55,2.0,8.0,90,0.04,RA,,1.08,WeatherDisplay:10.37,2013-03-19 15:14:00,
2013-03-19 11:19:00,35.6,33.0,29.65,ENE,62,1.0,5.0,90,0.00,RA,,1.08,WeatherDisplay:10.37,2013-03-19 15:19:00,
2013-03-19 11:24:00,35.6,32.7,29.65,NE,44,2.0,5.0,89,0.00,CLR,,1.08,WeatherDisplay:10.37,2013-03-19 15:24:00,
2013-03-19 11:34:00,35.6,32.7,29.62,NE,50,2.0,8.0,89,0.00,CLR,,1.08,WeatherDisplay:10.37,2013-03-19 15:34:00,
2013-03-19 11:39:00,35.8,33.1,29.62,NE,46,3.0,4.0,90,0.00,CLR,,1.08,WeatherDisplay:10.37,2013-03-19 15:39:00,
2013-03-19 11:44:00,36.0,33.3,29.62,ENE,62,3.0,4.0,90,0.00,CLR,,1.08,WeatherDisplay:10.37,2013-03-19 15:44:00,
2013-03-19 11:49:00,36.1,33.5,29.62,ENE,62,1.0,5.0,90,0.00,CLR,,1.08,WeatherDisplay:10.37,2013-03-19 15:49:00,
2013-03-19 11:54:00,36.3,33.7,29.62,ENE,78,5.0,6.0,90,0.04,RA,,1.12,WeatherDisplay:10.37,2013-03-19 15:54:00,
2013-03-19 11:59:00,36.5,34.1,29.62,East,87,2.0,6.0,91,0.00,RA,,1.12,WeatherDisplay:10.37,2013-03-19 15:59:00,
2013-03-19 12:04:00,36.7,34.3,29.59,East,79,5.0,5.0,91,0.00,,,1.12,WeatherDisplay:10.37,2013-03-19 16:04:00,
2013-03-19 12:09:00,36.9,34.5,29.59,ENE,63,5.0,5.0,91,0.00,CLR,,1.12,WeatherDisplay:10.37,2013-03-19 16:09:00,
2013-03-19 12:19:00,36.9,34.5,29.59,NE,39,2.0,4.0,91,0.00,CLR,,1.12,WeatherDisplay:10.37,2013-03-19 16:19:00,
2013-03-19 12:25:00,36.8,34.1,29.59,NE,39,3.0,5.0,90,0.00,CLR,,1.12,WeatherDisplay:10.37,2013-03-19 16:25:00,
2013-03-19 12:34:00,36.7,34.0,29.59,North,359,2.0,3.0,90,0.00,CLR,,1.12,WeatherDisplay:10.37,2013-03-19 16:34:00,
2013-03-19 12:39:00,36.7,34.3,29.59,NE,52,5.0,5.0,91,0.00,CLR,,1.12,WeatherDisplay:10.37,2013-03-19 16:39:00,
2013-03-19 12:44:00,36.7,34.3,29.59,ENE,78,2.0,5.0,91,0.00,CLR,,1.12,WeatherDisplay:10.37,2013-03-19 16:44:00,
2013-03-19 12:49:00,36.7,34.3,29.56,ENE,58,2.0,3.0,91,0.04,RA,,1.16,WeatherDisplay:10.37,2013-03-19 16:49:00,
2013-03-19 12:54:00,36.7,34.3,29.56,ENE,65,1.0,3.0,91,0.00,RA,,1.16,WeatherDisplay:10.37,2013-03-19 16:54:00,
2013-03-19 13:04:00,36.7,34.6,29.59,North,360,3.0,4.0,92,0.04,RA,,1.20,WeatherDisplay:10.37,2013-03-19 17:04:00,
2013-03-19 13:09:00,36.7,34.6,29.59,NW,312,3.0,6.0,92,0.00,RA,,1.20,WeatherDisplay:10.37,2013-03-19 17:09:00,
2013-03-19 13:19:00,36.3,34.2,29.62,NNW,328,2.0,3.0,92,0.04,RA,,1.24,WeatherDisplay:10.37,2013-03-19 17:19:00,
2013-03-19 13:29:00,36.3,34.2,29.62,NW,325,2.0,3.0,92,0.05,RA,,1.29,WeatherDisplay:10.37,2013-03-19 17:29:00,
2013-03-19 13:34:00,36.5,34.7,29.59,NE,39,2.0,3.0,93,0.00,RA,,1.29,WeatherDisplay:10.37,2013-03-19 17:34:00,
2013-03-19 13:44:00,37.2,35.4,29.59,NNE,14,1.0,3.0,93,0.04,RA,,1.33,WeatherDisplay:10.37,2013-03-19 17:44:00,
2013-03-19 13:49:00,37.1,35.2,29.59,NE,38,0.0,3.0,93,0.00,RA,,1.33,WeatherDisplay:10.37,2013-03-19 17:49:00,
2013-03-19 13:59:00,37.0,35.2,29.59,NNE,29,1.0,2.0,93,0.00,CLR,,1.33,WeatherDisplay:10.37,2013-03-19 17:59:00,
2013-03-19 14:04:00,36.9,35.3,29.62,North,5,2.0,3.0,94,0.00,CLR,,1.33,WeatherDisplay:10.37,2013-03-19 18:04:00,
2013-03-19 14:14:00,36.9,35.3,29.62,North,11,2.0,5.0,94,0.00,RA,,1.37,WeatherDisplay:10.37,2013-03-19 18:14:00,
2013-03-19 14:19:00,36.9,35.3,29.56,NNE,31,3.0,5.0,94,0.00,,,1.37,WeatherDisplay:10.37,2013-03-19 18:19:00,
2013-03-19 14:29:00,37.0,35.5,29.56,ENE,74,3.0,4.0,94,0.00,CLR,,1.37,WeatherDisplay:10.37,2013-03-19 18:29:00,
2013-03-19 14:34:00,37.0,35.7,29.56,East,80,5.0,5.0,95,0.00,CLR,,1.37,WeatherDisplay:10.37,2013-03-19 18:34:00,
2013-03-19 14:39:00,37.0,35.5,29.56,East,83,3.0,5.0,94,0.00,CLR,,1.37,WeatherDisplay:10.37,2013-03-19 18:39:00,
2013-03-19 14:49:00,37.7,36.4,29.53,ENE,75,3.0,5.0,95,0.00,RA,,1.41,WeatherDisplay:10.37,2013-03-19 18:49:00,
2013-03-19 14:54:00,37.8,36.5,29.53,ENE,63,3.0,6.0,95,0.00,,,1.41,WeatherDisplay:10.37,2013-03-19 18:54:00,
2013-03-19 15:04:00,38.3,37.0,29.53,NE,36,3.0,7.0,95,0.00,CLR,,1.41,WeatherDisplay:10.37,2013-03-19 19:04:00,
2013-03-19 15:09:00,38.5,37.2,29.53,WNW,292,1.0,3.0,95,0.00,CLR,,1.41,WeatherDisplay:10.37,2013-03-19 19:09:00,
2013-03-19 15:19:00,38.8,37.8,29.56,NNW,343,3.0,6.0,96,0.00,CLR,,1.41,WeatherDisplay:10.37,2013-03-19 19:19:00,
2013-03-19 15:29:00,39.0,38.0,29.56,North,350,1.0,3.0,96,0.04,RA,,1.45,WeatherDisplay:10.37,2013-03-19 19:29:00,
2013-03-19 15:34:00,39.2,37.9,29.53,NNE,30,5.0,6.0,95,0.00,RA,,1.45,WeatherDisplay:10.37,2013-03-19 19:34:00,
2013-03-19 15:39:00,39.2,37.9,29.53,NE,38,2.0,6.0,95,0.00,CLR,,1.45,WeatherDisplay:10.37,2013-03-19 19:39:00,
2013-03-19 15:44:00,39.4,38.1,29.53,NNE,25,2.0,3.0,95,0.00,CLR,,1.45,WeatherDisplay:10.37,2013-03-19 19:44:00,
2013-03-19 15:50:00,39.4,38.1,29.53,North,1,2.0,2.0,95,0.00,CLR,,1.45,WeatherDisplay:10.37,2013-03-19 19:50:00,
2013-03-19 15:59:00,39.7,38.4,29.53,NW,320,2.0,3.0,95,0.00,CLR,,1.45,WeatherDisplay:10.37,2013-03-19 19:59:00,
2013-03-19 16:04:00,39.7,38.4,29.53,NNE,31,1.0,4.0,95,0.00,CLR,,1.45,WeatherDisplay:10.37,2013-03-19 20:04:00,
2013-03-19 16:09:00,39.4,38.1,29.53,North,349,5.0,6.0,95,0.00,CLR,,1.45,WeatherDisplay:10.37,2013-03-19 20:09:00,
2013-03-19 16:19:00,39.5,38.2,29.53,North,355,1.0,3.0,95,0.00,CLR,,1.45,WeatherDisplay:10.37,2013-03-19 20:19:00,
2013-03-19 16:29:00,39.6,38.2,29.53,ENE,60,2.0,3.0,95,0.00,CLR,,1.45,WeatherDisplay:10.37,2013-03-19 20:29:00,
2013-03-19 16:34:00,39.4,38.1,29.53,NE,43,2.0,3.0,95,0.00,CLR,,1.45,WeatherDisplay:10.37,2013-03-19 20:34:00,
2013-03-19 16:39:00,39.4,38.1,29.53,NE,41,3.0,5.0,95,0.00,CLR,,1.45,WeatherDisplay:10.37,2013-03-19 20:39:00,
2013-03-19 16:44:00,39.7,38.4,29.53,NNE,14,3.0,4.0,95,0.00,CLR,,1.45,WeatherDisplay:10.37,2013-03-19 20:44:00,
2013-03-19 16:49:00,39.7,38.4,29.53,NNE,12,3.0,5.0,95,0.04,RA,,1.49,WeatherDisplay:10.37,2013-03-19 20:49:00,
2013-03-19 16:59:00,39.6,38.2,29.53,North,359,2.0,3.0,95,0.00,,,1.49,WeatherDisplay:10.37,2013-03-19 20:59:00,
2013-03-19 17:09:00,39.4,38.1,29.56,North,7,1.0,3.0,95,0.00,CLR,,1.49,WeatherDisplay:10.37,2013-03-19 21:09:00,
2013-03-19 17:14:00,39.4,38.1,29.56,NNW,341,2.0,3.0,95,0.00,CLR,,1.49,WeatherDisplay:10.37,2013-03-19 21:14:00,
2013-03-19 17:24:00,39.0,37.7,29.56,NW,306,3.0,5.0,95,0.00,CLR,,1.49,WeatherDisplay:10.37,2013-03-19 21:24:00,
2013-03-19 17:34:00,38.5,37.2,29.56,West,279,6.0,7.0,95,0.00,CLR,,1.49,WeatherDisplay:10.37,2013-03-19 21:34:00,
2013-03-19 17:39:00,37.9,36.6,29.56,WNW,286,3.0,7.0,95,0.00,CLR,,1.49,WeatherDisplay:10.37,2013-03-19 21:39:00,
2013-03-19 17:49:00,37.1,35.6,29.59,NNW,335,3.0,5.0,94,0.00,CLR,,1.49,WeatherDisplay:10.37,2013-03-19 21:49:00,
2013-03-19 17:54:00,36.9,35.6,29.59,NNW,331,3.0,3.0,95,0.00,CLR,,1.49,WeatherDisplay:10.37,2013-03-19 21:54:00,
2013-03-19 17:59:00,36.7,35.1,29.59,NW,326,2.0,4.0,94,0.00,CLR,,1.49,WeatherDisplay:10.37,2013-03-19 21:59:00,
2013-03-19 18:04:00,36.5,34.9,29.56,NNW,348,2.0,3.0,94,0.00,CLR,,1.49,WeatherDisplay:10.37,2013-03-19 22:04:00,
2013-03-19 18:09:00,36.3,35.0,29.56,North,349,2.0,4.0,95,0.00,CLR,,1.49,WeatherDisplay:10.37,2013-03-19 22:09:00,
2013-03-19 18:19:00,36.1,34.8,29.59,NW,325,2.0,5.0,95,0.00,CLR,,1.49,WeatherDisplay:10.37,2013-03-19 22:19:00,
2013-03-19 18:24:00,36.1,34.8,29.59,NNW,327,2.0,3.0,95,0.00,CLR,,1.49,WeatherDisplay:10.37,2013-03-19 22:24:00,
2013-03-19 18:34:00,36.0,34.7,29.59,NW,319,2.0,3.0,95,0.00,CLR,,1.49,WeatherDisplay:10.37,2013-03-19 22:34:00,
2013-03-19 18:39:00,35.8,34.5,29.59,NNW,338,1.0,3.0,95,0.00,CLR,,1.49,WeatherDisplay:10.37,2013-03-19 22:39:00,
2013-03-19 18:44:00,35.6,34.3,29.59,NNW,331,2.0,2.0,95,0.00,CLR,,1.49,WeatherDisplay:10.37,2013-03-19 22:44:00,
2013-03-19 18:49:00,35.6,34.3,29.59,NW,314,1.0,4.0,95,0.00,CLR,,1.49,WeatherDisplay:10.37,2013-03-19 22:49:00,
2013-03-19 18:59:00,35.4,34.1,29.59,NNW,333,1.0,2.0,95,0.00,CLR,,1.49,WeatherDisplay:10.37,2013-03-19 22:59:00,
2013-03-19 19:14:00,35.1,34.0,29.59,NNW,334,2.0,6.0,96,0.00,CLR,,1.49,WeatherDisplay:10.37,2013-03-19 23:14:00,
2013-03-19 19:19:00,35.1,34.0,29.59,NW,320,2.0,3.0,96,0.00,CLR,,1.49,WeatherDisplay:10.37,2013-03-19 23:19:00,
2013-03-19 19:24:00,34.9,33.9,29.59,NW,311,2.0,3.0,96,0.00,CLR,,1.49,WeatherDisplay:10.37,2013-03-19 23:24:00,
2013-03-19 19:29:00,34.9,33.9,29.59,NW,323,3.0,4.0,96,0.00,CLR,,1.49,WeatherDisplay:10.37,2013-03-19 23:29:00,
2013-03-19 19:34:00,34.9,33.9,29.59,NW,306,2.0,4.0,96,0.04,RA,,1.53,WeatherDisplay:10.37,2013-03-19 23:34:00,
2013-03-19 19:39:00,34.9,33.9,29.59,NW,307,2.0,3.0,96,0.00,RA,,1.53,WeatherDisplay:10.37,2013-03-19 23:39:00,
2013-03-19 19:44:00,34.7,33.7,29.59,NNW,331,5.0,6.0,96,0.00,CLR,,1.53,WeatherDisplay:10.37,2013-03-19 23:44:00,
2013-03-19 19:49:00,34.7,33.7,29.62,NNW,334,3.0,6.0,96,0.00,CLR,,1.53,WeatherDisplay:10.37,2013-03-19 23:49:00,
2013-03-19 19:54:00,34.7,33.7,29.62,NW,306,2.0,9.0,96,0.00,CLR,,1.53,WeatherDisplay:10.37,2013-03-19 23:54:00,
2013-03-19 19:59:00,34.7,33.7,29.62,WNW,296,2.0,3.0,96,0.00,CLR,,1.53,WeatherDisplay:10.37,2013-03-19 23:59:00,
2013-03-19 20:04:00,34.6,33.6,29.62,NNW,334,1.0,3.0,96,0.00,CLR,,1.53,WeatherDisplay:10.37,2013-03-20 00:04:00,
2013-03-19 20:09:00,34.5,33.5,29.62,NNW,332,2.0,3.0,96,0.00,CLR,,1.53,WeatherDisplay:10.37,2013-03-20 00:09:00,
2013-03-19 20:14:00,34.5,33.5,29.62,NW,317,2.0,3.0,96,0.00,CLR,,1.53,WeatherDisplay:10.37,2013-03-20 00:14:00,
2013-03-19 20:19:00,34.5,33.5,29.62,NNW,334,1.0,3.0,96,0.00,CLR,,1.53,WeatherDisplay:10.37,2013-03-20 00:19:00,
2013-03-19 20:24:00,34.5,33.5,29.62,NNW,328,1.0,3.0,96,0.00,CLR,,1.53,WeatherDisplay:10.37,2013-03-20 00:24:00,
2013-03-19 20:29:00,34.3,33.3,29.62,NNW,348,1.0,2.0,96,0.00,CLR,,1.53,WeatherDisplay:10.37,2013-03-20 00:29:00,
2013-03-19 20:39:00,34.3,33.3,29.62,NNW,336,3.0,6.0,96,0.00,CLR,,1.53,WeatherDisplay:10.37,2013-03-20 00:39:00,
2013-03-19 20:44:00,34.2,33.1,29.62,NNW,334,3.0,6.0,96,0.00,CLR,,1.53,WeatherDisplay:10.37,2013-03-20 00:44:00,
2013-03-19 20:49:00,34.0,33.0,29.62,NNW,343,1.0,5.0,96,0.00,CLR,,1.53,WeatherDisplay:10.37,2013-03-20 00:49:00,
2013-03-19 20:54:00,34.0,33.0,29.62,North,6,2.0,3.0,96,0.00,CLR,,1.53,WeatherDisplay:10.37,2013-03-20 00:54:00,
2013-03-19 20:59:00,34.0,33.0,29.62,North,351,2.0,3.0,96,0.00,CLR,,1.53,WeatherDisplay:10.37,2013-03-20 00:59:00,
2013-03-19 21:04:00,34.0,33.0,29.65,NW,323,0.0,5.0,96,0.00,CLR,,1.53,WeatherDisplay:10.37,2013-03-20 01:04:00,
2013-03-19 21:09:00,34.0,33.0,29.65,NNW,333,3.0,3.0,96,0.00,CLR,,1.53,WeatherDisplay:10.37,2013-03-20 01:09:00,
2013-03-19 21:14:00,34.0,33.0,29.65,NNE,18,2.0,3.0,96,0.00,CLR,,1.53,WeatherDisplay:10.37,2013-03-20 01:14:00,
2013-03-19 21:19:00,33.8,32.8,29.62,NNE,33,1.0,3.0,96,0.00,CLR,,1.53,WeatherDisplay:10.37,2013-03-20 01:19:00,
2013-03-19 21:29:00,33.6,32.6,29.62,NW,324,2.0,2.0,96,0.00,CLR,,1.53,WeatherDisplay:10.37,2013-03-20 01:29:00,
2013-03-19 21:34:00,33.4,32.7,29.62,NW,316,2.0,3.0,97,0.00,CLR,,1.53,WeatherDisplay:10.37,2013-03-20 01:34:00,
2013-03-19 21:39:00,33.3,32.5,29.62,NW,312,2.0,3.0,97,0.00,CLR,,1.53,WeatherDisplay:10.37,2013-03-20 01:39:00,
2013-03-19 21:44:00,33.3,32.5,29.62,NW,312,1.0,2.0,97,0.00,CLR,,1.53,WeatherDisplay:10.37,2013-03-20 01:44:00,
2013-03-19 21:49:00,33.3,32.5,29.62,NW,313,1.0,3.0,97,0.00,CLR,,1.53,WeatherDisplay:10.37,2013-03-20 01:49:00,
2013-03-19 21:54:00,33.3,32.5,29.62,NW,317,1.0,2.0,97,0.00,CLR,,1.53,WeatherDisplay:10.37,2013-03-20 01:54:00,
2013-03-19 21:59:00,33.3,32.5,29.62,NNW,330,2.0,3.0,97,0.00,CLR,,1.53,WeatherDisplay:10.37,2013-03-20 01:59:00,
2013-03-19 22:04:00,33.3,32.5,29.65,NNW,332,2.0,3.0,97,0.00,CLR,,1.53,WeatherDisplay:10.37,2013-03-20 02:04:00,
2013-03-19 22:09:00,33.3,32.5,29.65,NNW,329,3.0,3.0,97,0.00,CLR,,1.53,WeatherDisplay:10.37,2013-03-20 02:09:00,
2013-03-19 22:19:00,33.1,32.3,29.62,NW,325,1.0,2.0,97,0.00,CLR,,1.53,WeatherDisplay:10.37,2013-03-20 02:19:00,
2013-03-19 22:24:00,33.1,32.3,29.62,NW,319,2.0,2.0,97,0.00,CLR,,1.53,WeatherDisplay:10.37,2013-03-20 02:24:00,
2013-03-19 22:29:00,33.1,32.3,29.62,NNW,332,1.0,3.0,97,0.00,CLR,,1.53,WeatherDisplay:10.37,2013-03-20 02:29:00,
2013-03-19 22:34:00,33.1,32.3,29.62,NW,316,1.0,2.0,97,0.00,CLR,,1.53,WeatherDisplay:10.37,2013-03-20 02:34:00,
2013-03-19 22:39:00,33.1,32.3,29.62,NW,317,0.0,3.0,97,0.00,CLR,,1.53,WeatherDisplay:10.37,2013-03-20 02:39:00,
2013-03-19 22:44:00,32.9,32.1,29.62,NNW,332,0.0,2.0,97,0.00,CLR,,1.53,WeatherDisplay:10.37,2013-03-20 02:44:00,
2013-03-19 22:49:00,32.7,32.0,29.62,NW,306,2.0,2.0,97,0.00,CLR,,1.53,WeatherDisplay:10.37,2013-03-20 02:49:00,
2013-03-19 22:54:00,32.7,32.0,29.62,WNW,297,1.0,2.0,97,0.00,CLR,,1.53,WeatherDisplay:10.37,2013-03-20 02:54:00,
2013-03-19 22:59:00,32.6,31.9,29.62,NW,305,0.0,2.0,97,0.00,CLR,,1.53,WeatherDisplay:10.37,2013-03-20 02:59:00,
2013-03-19 23:04:00,32.5,31.8,29.65,NW,313,0.0,1.0,97,0.00,CLR,,1.53,WeatherDisplay:10.37,2013-03-20 03:04:00,
2013-03-19 23:09:00,32.5,31.8,29.65,WNW,302,1.0,1.0,97,0.00,CLR,,1.53,WeatherDisplay:10.37,2013-03-20 03:09:00,
2013-03-19 23:14:00,32.5,31.8,29.65,WNW,294,0.0,2.0,97,0.00,CLR,,1.53,WeatherDisplay:10.37,2013-03-20 03:14:00,
2013-03-19 23:19:00,32.5,31.8,29.62,NNE,14,1.0,2.0,97,0.00,CLR,,1.53,WeatherDisplay:10.37,2013-03-20 03:19:00,
2013-03-19 23:24:00,32.5,31.8,29.62,NNE,28,2.0,3.0,97,0.00,CLR,,1.53,WeatherDisplay:10.37,2013-03-20 03:24:00,
2013-03-19 23:29:00,32.5,31.8,29.62,NNW,347,2.0,4.0,97,0.00,CLR,,1.53,WeatherDisplay:10.37,2013-03-20 03:29:00,
2013-03-19 23:39:00,32.7,32.0,29.65,NNW,338,2.0,5.0,97,0.00,CLR,,1.53,WeatherDisplay:10.37,2013-03-20 03:39:00,
2013-03-19 23:49:00,32.7,32.0,29.65,NNW,333,2.0,3.0,97,0.00,CLR,,1.53,WeatherDisplay:10.37,2013-03-20 03:49:00,
2013-03-19 23:54:00,32.7,32.0,29.65,NNW,334,3.0,3.0,97,0.00,CLR,,1.53,WeatherDisplay:10.37,2013-03-20 03:54:00,
2013-03-19 23:59:00,32.7,32.0,29.65,NNW,339,1.0,3.0,97,0.00,RA,,0.00,WeatherDisplay:10.37,2013-03-20 03:59:00,